Main page
Satellite images Climate Cyclones Lightning AirportsFAQ Languages Contact Newsletter About
Weather : Europe Africa North America South America Asia Australia-Oceania Others

1224, Nanning, Nanning Wuxu International Airport

59431

latitude: , longitude: China, elevation: 22-49N m


METAR: ZGNN 200200Z 15003MPS 090V200 9999 SCT016 31/25 Q1011 NOSIG